sat.trackr.live / text

‹ back to catalog

STARLINK-33912

NORAD 64107 · 2025-110M

PAYLOAD ACTIVE UNKNOWN

§ Identity

Operator
Country
US
Launch date
2025-05-23
Launch site
AFWTR
Launch vehicle
Mass (kg)
RCS (m²)

Purposes: comms

External: N2YO · Heavens-Above · Gunter

§ Orbital elements

Epoch: 2026-09-19T11:37:57.613440Z

Period
94.01 min
Inclination
53.1589°
Eccentricity
0.0000345
Mean motion
15.31726230 rev/d
Perigee alt
470.4 km
Apogee alt
470.9 km
Semi-major
6,848.8 km
B*
-1.2575e-4
RAAN
205.1680°
Arg perigee
103.8931°
Mean anomaly
256.2109°
Rev number
7,557

§ Raw data

STARLINK-339121 64107U 25110M   26262.48469460 -.00004268  00000+0 -12575-3 0  99902 64107  53.1589 205.1680 0000345 103.8931 256.2109 15.31726230 75579

JSON: /api/v1/satellites/64107 · /tle

For live sub-satellite position, see the globe view (requires WebGL).

§ Visibility from observer

Set your observer location to see the next 7 days of passes ≥ 10°. The values pass through the URL so the page stays shareable.

No JS? Fill the form by hand. The geolocation button needs JavaScript.